Tracking 35331 objects as of 16-Sep-2026
HD Live streaming from Space Station
objects crossing your sky now

KUIPER-00629

Track KUIPER-00629 now!
10-day predictions
KUIPER-00629 is classified as:


NORAD ID: 69783
Int'l Code: 2026-151W
Launch date: July 2, 2026
Source: United States (US)
Launch site: AIR FORCE EASTERN TEST RANGE (AFETR)
Your satellite tracking list
Your tracking list is empty




NASA's NSSDC Master Catalog

Two Line Element Set (TLE):
1 69783U 26151W   26259.26254499  .00007070  00000-0  95482-3 0  9998
2 69783  51.9033 255.3738 0000538  48.2828 311.8181 14.79957380 11443
Source of the keplerian elements: AFSPC